Location: Unspecified
(0.0000°N, 0.0000°E)
Time: 15:48:47
(UTC+00:00)

Envisat - Pass Details

Date: 19 September 2020
Orbit: 764 x 766 km, 98.1° (Epoch: 19 September)

Event Time Altitude Azimuth Distance (km) Brightness Sun altitude
Rises 18:14:33 0° 185° (S) 3,230 6.3 -5.3°
Reaches altitude 10° 18:17:04 10° 195° (SSW) 2,301 5.7 -5.9°
Maximum altitude 18:21:34 33° 258° (WSW) 1,269 5.0 -7.0°
Drops below altitude 10° 18:26:04 10° 321° (NW) 2,292 6.1 -8.1°
Sets 18:28:34 0° 331° (NNW) 3,214 6.7 -8.8°
